Location: Chuathbaluk
(61.5726°N, 159.2454°W)
Time: 14:04:02
(UTC+00:00)

ITAMSAT 1 - Pass Details

Date: 25 January 2021
Orbit: 784 x 796 km, 98.9° (Epoch: 01 March)

Event Time Altitude Azimuth Distance (km) Brightness Sun altitude
Rises 16:10:32 0° 21° (NNE) 3,291 11.1 -21.1°
Reaches altitude 10° 16:13:22 10° 37° (NE) 2,358 10.6 -20.7°
Maximum altitude 16:17:25 22° 88° (E) 1,651 10.2 -20.2°
Drops below altitude 10° 16:21:27 10° 139° (SE) 2,350 10.7 -19.8°
Sets 16:24:16 0° 154° (SSE) 3,275 11.3 -19.4°
